sat.trackr.live / text

‹ back to catalog

STARLINK-30197

NORAD 57443 · 2023-105P

PAYLOAD ACTIVE UNKNOWN

§ Identity

Operator
Country
US
Launch date
2023-07-24
Launch site
AFETR
Launch vehicle
Mass (kg)
RCS (m²)

Purposes: comms

External: N2YO · Heavens-Above · Gunter

§ Orbital elements

Epoch: 2026-09-20T00:28:30.831456Z

Period
94.27 min
Inclination
43.0018°
Eccentricity
0.0001368
Mean motion
15.27576468 rev/d
Perigee alt
482.1 km
Apogee alt
484.0 km
Semi-major
6,861.2 km
B*
4.3090e-5
RAAN
242.2442°
Arg perigee
271.6759°
Mean anomaly
88.3936°
Rev number
17,530

§ Raw data

STARLINK-301971 57443U 23105P   26263.01980129  .00000924  00000+0  43090-4 0  99972 57443  43.0018 242.2442 0001368 271.6759  88.3936 15.27576468175300

JSON: /api/v1/satellites/57443 · /tle

For live sub-satellite position, see the globe view (requires WebGL).

§ Visibility from observer

Set your observer location to see the next 7 days of passes ≥ 10°. The values pass through the URL so the page stays shareable.

No JS? Fill the form by hand. The geolocation button needs JavaScript.